| time (UTC) | temp F | wind direction | speed knots | gust knots | rain 1hr in | rain 24hr in | rain mn in | humidity % | barometer mb |
| 20260903041544 | 73 | 113 | 1.7 | 3.5 | 0.00 | 1.33 | 0.00 | 72 | 1008.2 |
| 20260903040043 | 73 | 113 | 0.9 | 3.5 | 0.00 | 1.33 | 0.00 | 74 | 1008.2 |
| 20260903034523 | 74 | 127 | 1.7 | 3.5 | 0.00 | 1.33 | 0.00 | 78 | 1008.3 |
| 20260903033031 | 74 | 113 | 2.6 | 3.5 | 0.00 | 1.33 | 0.00 | 80 | 1008.4 |
| 20260903031501 | 75 | 120 | 2.6 | 4.3 | 0.00 | 1.33 | 0.00 | 83 | 1008.3 |
| 20260903030100 | 75 | 116 | 1.7 | 3.5 | 0.00 | 1.33 | 0.00 | 83 | 1008.4 |
| 20260903024545 | 75 | 136 | 1.7 | 3.5 | 0.00 | 1.33 | 0.00 | 84 | 1008.3 |
| 20260903023040 | 76 | 148 | 2.6 | 3.5 | 0.00 | 1.33 | 0.00 | 85 | 1008.3 |
| 20260903021533 | 76 | 128 | 1.7 | 3.5 | 0.00 | 1.33 | 0.00 | 85 | 1008.2 |
| 20260903020019 | 77 | 107 | 1.7 | 3.5 | 0.00 | 1.33 | 0.00 | 86 | 1008.1 |
| 20260903014502 | 77 | 136 | 1.7 | 3.5 | 0.00 | 1.33 | 0.00 | 86 | 1007.9 |
| 20260903013100 | 77 | 132 | 2.6 | 4.3 | 0.00 | 1.33 | 0.00 | 86 | 1007.7 |
| 20260903011539 | 78 | 108 | 1.7 | 4.3 | 0.00 | 1.33 | 0.00 | 86 | 1007.7 |
| 20260903010037 | 79 | 130 | 1.7 | 4.3 | 0.00 | 1.33 | 0.00 | 85 | 1007.6 |
| 20260903004521 | 81 | 133 | 1.7 | 3.5 | 0.00 | 1.33 | 0.00 | 83 | 1007.7 |
| 20260903003012 | 83 | 134 | 0.9 | 4.3 | 0.00 | 1.33 | 0.00 | 80 | 1007.7 |
| 20260903001556 | 84 | 135 | 0.0 | 2.6 | 0.00 | 1.33 | 0.00 | 76 | 1007.8 |
| 20260903000054 | 86 | 180 | 2.6 | 5.2 | 0.00 | 1.33 | 0.00 | 73 | 1007.8 |
| 20260902234537 | 86 | 167 | 2.6 | 5.2 | 0.00 | 1.33 | 0.00 | 71 | 1007.8 |
| 20260902233036 | 87 | 169 | 3.5 | 7.8 | 0.00 | 1.33 | 0.00 | 70 | 1007.9 |
| 20260902231525 | 87 | 215 | 6.1 | 9.6 | 0.00 | 1.33 | 0.00 | 68 | 1007.8 |
| 20260902230025 | 88 | 168 | 4.3 | 7.8 | 0.00 | 1.33 | 0.00 | 69 | 1007.9 |
| 20260902224524 | 88 | 165 | 3.5 | 10.4 | 0.00 | 1.33 | 0.00 | 68 | 1008.0 |
| 20260902223022 | 88 | 120 | 5.2 | 8.7 | 0.00 | 1.33 | 0.00 | 65 | 1007.9 |
| 20260902221521 | 88 | 162 | 4.3 | 9.6 | 0.00 | 1.33 | 0.00 | 64 | 1008.0 |
| 20260902220020 | 88 | 198 | 6.1 | 10.4 | 0.00 | 1.33 | 0.00 | 63 | 1008.2 |
| 20260902214526 | 88 | 153 | 6.1 | 11.3 | 0.00 | 1.33 | 0.00 | 64 | 1008.2 |
| 20260902213017 | 89 | 159 | 5.2 | 8.7 | 0.00 | 1.33 | 0.00 | 66 | 1008.3 |
| 20260902211605 | 89 | 169 | 4.3 | 7.0 | 0.00 | 1.33 | 0.00 | 66 | 1008.4 |
| 20260902204537 | 88 | 206 | 5.2 | 9.6 | 0.00 | 1.33 | 0.00 | 63 | 1008.5 |
| 20260902203035 | 88 | 195 | 4.3 | 7.8 | 0.00 | 1.33 | 0.00 | 66 | 1008.6 |
| 20260902201528 | 87 | 197 | 4.3 | 7.8 | 0.00 | 1.33 | 0.00 | 65 | 1008.7 |
| 20260902200026 | 88 | 204 | 3.5 | 7.8 | 0.00 | 1.33 | 0.00 | 64 | 1008.9 |
| 20260902194518 | 87 | 257 | 2.6 | 6.1 | 0.00 | 1.33 | 0.00 | 64 | 1008.9 |
| 20260902193015 | 87 | 226 | 1.7 | 6.1 | 0.00 | 1.33 | 0.00 | 65 | 1009.1 |
| 20260902191514 | 86 | 214 | 4.3 | 7.8 | 0.00 | 1.33 | 0.00 | 63 | 1009.3 |
| 20260902190010 | 86 | 261 | 3.5 | 7.8 | 0.00 | 1.33 | 0.00 | 65 | 1009.4 |
| 20260902184507 | 86 | 194 | 1.7 | 7.0 | 0.00 | 1.33 | 0.00 | 64 | 1009.4 |
| 20260902183005 | 86 | 177 | 1.7 | 5.2 | 0.00 | 1.33 | 0.00 | 65 | 1009.6 |
| 20260902181544 | 85 | 278 | 2.6 | 5.2 | 0.00 | 1.33 | 0.00 | 68 | 1009.8 |
| 20260902180045 | 84 | 254 | 2.6 | 5.2 | 0.00 | 1.33 | 0.00 | 69 | 1009.9 |
| 20260902174521 | 84 | 256 | 0.9 | 4.3 | 0.00 | 1.33 | 0.00 | 74 | 1010.1 |
| 20260902173017 | 82 | 251 | 1.7 | 5.2 | 0.00 | 1.33 | 0.00 | 77 | 1010.3 |
| 20260902171602 | 83 | 254 | 0.9 | 4.3 | 0.00 | 1.33 | 1.33 | 74 | 1010.3 |
| 20260902170058 | 83 | 208 | 0.9 | 5.2 | 0.00 | 1.33 | 1.33 | 74 | 1010.1 |
| 20260902164541 | 81 | 229 | 1.7 | 7.0 | 0.00 | 1.33 | 1.33 | 82 | 1010.4 |
| 20260902163052 | 80 | 167 | 5.2 | 9.6 | 0.00 | 1.33 | 1.33 | 83 | 1010.6 |
| 20260902161526 | 79 | 204 | 3.5 | 9.6 | 0.00 | 1.33 | 1.33 | 86 | 1010.5 |
| 20260902160021 | 78 | 227 | 3.5 | 9.6 | 0.00 | 1.33 | 1.33 | 86 | 1010.4 |
| 20260902154503 | 76 | 197 | 7.0 | 10.4 | 0.00 | 1.33 | 1.33 | 66 | 1010.5 |
| 20260902153003 | 75 | 206 | 7.0 | 9.6 | 0.00 | 1.33 | 1.33 | 47 | 1010.5 |
| 20260902151551 | 74 | 212 | 4.3 | 10.4 | 0.00 | 1.33 | 1.33 | 45 | 1010.3 |
| 20260902150043 | 73 | 218 | 4.3 | 9.6 | 0.00 | 1.33 | 1.33 | 44 | 1009.9 |
| 20260902144534 | 72 | 232 | 5.2 | 8.7 | 0.00 | 1.33 | 1.33 | 44 | 1009.8 |
| 20260902143025 | 72 | 175 | 5.2 | 8.7 | 0.00 | 1.33 | 1.33 | 43 | 1009.9 |
| 20260902141506 | 71 | 201 | 4.3 | 9.6 | 0.00 | 1.33 | 1.33 | 43 | 1010.1 |
| 20260902140006 | 70 | 203 | 1.7 | 4.3 | 0.00 | 1.33 | 1.33 | 43 | 1010.1 |
| 20260902134602 | 69 | 205 | 3.5 | 7.8 | 0.00 | 1.33 | 1.33 | 43 | 1010.1 |
| 20260902133049 | 68 | 205 | 4.3 | 7.0 | 0.00 | 1.33 | 1.33 | 42 | 1009.9 |
| 20260902131544 | 68 | 165 | 2.6 | 7.0 | 0.00 | 1.33 | 1.33 | 43 | 1009.7 |
| 20260902130033 | 66 | 171 | 2.6 | 6.1 | 0.00 | 1.33 | 1.33 | 43 | 1009.7 |
| 20260902124535 | 67 | 108 | 0.9 | 3.5 | 0.00 | 1.33 | 1.33 | 43 | 1009.9 |
| 20260902123031 | 0 | 0.0 | 0.0 | 0.00 | 1.33 | 1.33 | 1009.9 | ||
| 20260902121530 | 0 | 0.0 | 0.0 | 0.00 | 1.33 | 1.33 | 1010.0 | ||
| 20260902120034 | 0 | 0.0 | 0.0 | 0.00 | 1.33 | 1.33 | 1009.9 | ||
| 20260902114531 | 0 | 0.0 | 0.0 | 0.00 | 1.33 | 1.33 | 1010.3 | ||
| 20260902113026 | 0 | 0.0 | 0.0 | 0.00 | 1.33 | 1.33 | 1010.2 | ||
| 20260902111512 | 0 | 0.0 | 0.0 | 0.00 | 1.33 | 1.33 | 1010.1 | ||
| 20260902110101 | 0 | 0.0 | 0.0 | 0.00 | 1.33 | 1.33 | 1010.0 | ||
| 20260902104538 | 0 | 0.0 | 0.0 | 0.00 | 1.33 | 1.33 | 1010.0 | ||
| 20260902103039 | 0 | 0.0 | 0.0 | 0.00 | 1.33 | 1.33 | 1009.9 | ||
| 20260902101514 | 0 | 0.0 | 0.0 | 0.00 | 1.33 | 1.33 | 1009.9 | ||
| 20260902100008 | 0 | 0.0 | 0.0 | 0.00 | 1.33 | 1.33 | 1010.1 | ||
| 20260902094547 | 67 | 99 | 6.1 | 10.4 | 0.00 | 1.33 | 1.33 | 44 | 1010.4 |
| 20260902093047 | 67 | 117 | 6.1 | 10.4 | 0.00 | 1.33 | 1.33 | 43 | 1010.8 |
| 20260902091556 | 67 | 117 | 5.2 | 7.8 | 0.00 | 1.33 | 1.33 | 44 | 1011.5 |
| 20260902090029 | 67 | 220 | 0.0 | 4.3 | 0.00 | 1.33 | 1.33 | 44 | 1012.4 |
| 20260902084511 | 67 | 227 | 6.1 | 11.3 | 0.00 | 1.33 | 1.33 | 43 | 1012.3 |
| 20260902083010 | 67 | 148 | 2.6 | 7.0 | 0.00 | 1.33 | 1.33 | 43 | 1010.6 |
| 20260902081551 | 67 | 118 | 6.1 | 8.7 | 0.00 | 1.33 | 1.33 | 44 | 1009.9 |
| 20260902080104 | 67 | 170 | 1.7 | 5.2 | 0.00 | 1.33 | 1.33 | 44 | 1010.4 |
| 20260902074534 | 67 | 95 | 1.7 | 7.0 | 0.00 | 1.33 | 1.33 | 44 | 1010.2 |
| 20260902073033 | 66 | 91 | 4.3 | 13.9 | 0.00 | 1.33 | 1.33 | 45 | 1009.6 |
| 20260902071534 | 66 | 134 | 10.4 | 13.9 | 0.00 | 1.33 | 1.33 | 45 | 1009.0 |
| 20260902070010 | 66 | 120 | 7.0 | 8.7 | 0.01 | 1.33 | 1.33 | 45 | 1009.4 |
| 20260902064617 | 66 | 85 | 3.5 | 7.8 | 0.20 | 1.33 | 1.33 | 45 | 1010.4 |
| 20260902063051 | 66 | 61 | 6.1 | 12.2 | 0.79 | 1.33 | 1.33 | 46 | 1010.6 |
| 20260902061603 | 66 | 60 | 3.5 | 6.1 | 1.09 | 1.33 | 1.33 | 46 | 1010.7 |
| 20260902060033 | 66 | 56 | 0.9 | 4.3 | 1.27 | 1.32 | 1.32 | 47 | 1011.4 |
| 20260902054535 | 67 | 48 | 0.0 | 13.0 | 1.07 | 1.08 | 1.08 | 49 | 1012.7 |
| 20260902053006 | 68 | 295 | 7.0 | 28.7 | 0.51 | 0.52 | 0.52 | 49 | 1013.0 |
| 20260902051502 | 68 | 340 | 2.6 | 11.3 | 0.19 | 0.20 | 0.20 | 62 | 1011.7 |
| 20260902050045 | 72 | 50 | 0.9 | 5.2 | 0.04 | 0.05 | 0.05 | 73 | 1011.0 |
| 20260902044540 | 72 | 341 | 1.7 | 6.1 | 0.00 | 0.01 | 0.01 | 80 | 1010.2 |
| 20260902043017 | 73 | 169 | 0.0 | 5.2 | 0.01 | 0.01 | 0.01 | 86 | 1010.1 |